Погода в Чорткове

Погода в Чорткове : погода сейчас, прогноз погоды и архив. Всё, что Вы хотите узнать о погоде в Чорткове!

Хотите узнать прогноз погоды в Чорткове? Тогда Вам сюда: Погода в Чорткове

Поиск расширенной информации на нашем сайте:

Другие новости

Новости СМИ2

Главная страница сайта

Новости сайта

03.07.2017

Напоминаем, что на нашем специализированном сайте Метеоцентр.Азия вы можете получить высокодетализированные автоматические прогнозы погоды по пунктам России, СНГ и мира в авиационном формате (включающие направление и скорость ветра, видимость, явления погоды, количество и форму облачности, нижнюю и верхнюю границу облачности).


Погода в Чорткове - сегодня

Время (UTC), дата Ветер
(°,м/с) 
Видим.   Явления Облачность Т
(°С)
Тd
(°С)
f(%) Тe
(°С)
Pmin
(гПа)
dP
(гПа)
Po
(мм)
O2
(г/м3)
Тmin Tmax R s Состояние
почвы
21 05.12.17 220 (ЮЗ) 10 км    9/9 600 м 
[Sc]
-1.1 -3.4 84 -2  1022.6  -1.6  737  298           
21 06.12.17 250 (З) 10 км    10/10 600 м 
[Sc]
+2.7 +0.6 86 1019.4  0.4  735  292           
03 07.12.17 260 (З) 10 км    10/10 600 м 
[Sc]
+2.5 +0.9 89 1019.5  0.2  735  293           
15 07.12.17 280 (З) 10 км    5/0 средняя, верхняя 
[Ac trans|Ci fib]
+3.1 -0.7 76 +4  1019.6  735  292           
21 07.12.17 180 (Ю) 4000 м  дымка  ясно 
-0.7 -2 91 1019  -0.6  734  296           
03 08.12.17 130 (ЮВ) 4000 м  дымка  ясно 
-1.5 -2.3 94 -1  1016.2  -1.4  732  296           
09 08.12.17 140 (ЮВ) 10 км    ясно 
+2.7 +0 82 +2  1014.3  -0.7  731  291           
15 08.12.17 100 (В) 10 км    ясно 
+4.6 +0.7 76 +5  1011.4  -0.5  729  288           
21 08.12.17 120 (ЮВ) 10 км    4/0 средняя, верхняя 
[Ac trans|Ci fib]
+1.2 -0.8 86 +2  1010.8  -0.1  729  292           
09 09.12.17 100 (В) 10 км    9/6 600 м средняя 
[Sc|Ac trans]
+1.6 -0.3 87 +2  1005.7  -0.9  725  290           
15 09.12.17 070 (В) 10 км    8/8 600 м 
[Sc]
+2.7 +1.1 89 +2  1003  -1.2  723  288           
03 10.12.17 290 (З) 10 км    10/10 600 м кучево-дожд. 
[Cb cap]
-1.2 -2.9 88 -4  1007.3  1.7  726  293           
09 10.12.17 280 (З) 10 км    10/8 600 м кучево-дожд., средняя 
[Cb cap|Ac und]
-0.8 -2.4 89 -3  1008.1  0.1  726  293           
15 10.12.17 270 (З) 10 км    ясно 
-1.4 -3.4 86 -2  1008.6  727  294           
03 11.12.17 130 (ЮВ) 10 км    10/10 600 м 
[Sc]
-0.9 -5.5 71 -3  1005.7  -1  725  293           
09 11.12.17 130 (ЮВ) 10 км    10/8 600 м средняя 
[Sc|Ac und]
+1.5 -4 67 -1  1006.5  0.2  726  291           
15 11.12.17 120 (ЮВ) 10 км    8/4 600 м средняя, верхняя 
[Sc|Ac trans|Ci fib]
+3.2 -0.9 74 +2  1006.2  726  288           
21 11.12.17 160 (Ю) 10 км    10/10 600 м 
[Sc]
+5 +1.5 78 +3  1006.7  0.2  726  286           
03 12.12.17 150 (ЮВ) 10 км    10/10 600 м 
[Sc]
+9.5 +1.5 57 +8  1005.9  0.1  726  282           
09 12.12.17 230 (ЮЗ) 10 км    9/6 600 м средняя, верхняя 
[Sc|Ac trans|Ci fib]
+11.3 +2.3 54 +11  1006.4  -0.1  727  280           
15 12.12.17 140 (ЮВ) 10 км    8/6 600 м средняя 
[Sc|Ac trans]
+8.1 +2.3 67 +8  1010.2  1.9  729  284           
21 12.12.17 070 (В) 10 км    8/8 600 м 
[Sc]
+6.6 +2.7 76 +8  1013  0.8  731  286           
03 13.12.17 310 (СЗ) 10 км    10/10 600 м кучево-дожд. 
[Cb cap]
+6.8 +5 88 +6  1013.5  0.8  731  286           
03 14.12.17 130 (ЮВ) 0500 м  туман  ?/?  
+0 +0 100 -1  1010.8  -1.6  729  293           
09 14.12.17 120 (ЮВ) 0200 м  туман  ?/?  
-0.2 -0.2 100 -2  1007.3  -1.3  726  292           
Время (UTC), дата Ветер
(°,м/с) 
Видим.   Явления Облачность Т
(°С)
Тd
(°С)
f(%) Тe
(°С)
Pmin
(гПа)
dP
(гПа)
Po
(мм)
O2
(г/м3)
Тmin Tmax R s Состояние
почвы

Для получения пояснительной информации подведите курсор к названию столбца.

ПОГОДА в Чорткове - архив

Всё, что Вы хотите узнать о погоде в Чорткове - удобно и подробно!

Выберите нужную дату (начиная с 1 января 2015* года) и нажмите кнопку "Найти".
Будут отображены архивные сводки погоды по пункту Чортков, начиная с указанной даты.


Отображать данные в формате CSV (для использования в таблицах Excel)


Внимание! Наш архив погоды предназначен исключительно для личного некоммерческого использования в познавательных целях. Если Вам необходимы официальные справки о состоянии погоды (для производственных, юридических, коммерческих и т.п. целей), обращайтесь в органы Росгидромета.

*Примечание: данная дата относится к архиву по метеостанциям СССР (Россия, СНГ, Балтия).
Архив по метеостанциям Зарубежной Европы и Азии (кроме Китая) хранится 10 дней, по другим регионам земного шара (Китай, Африка, Америка, Австралия, Океания) - 1 день.

Чортков - район местоположения метеостанции


Название, широта, долгота, высота метеостанции:
Чортков 49°ш. 25.8°д. 318 м над ур. моря [Украина]

Дополнительная информация

В oтличие oт бoльшинства пoгoдных сайтoв мы публикуем пoдрoбную метеoинфoрмацию в детальнoм прoфессиoнальнoм фoрмате.

Характеристики температуры и влажнoсти вoздуха измеряются на высoте 2 м в тени вдали oт зданий и деревьев.
Скoрoсть ветра измеряется на высoте 10 м (на урoвне рoста челoвека скoрoсть ветра ниже в 1.5-2 раза). Если метеoстанция нахoдится в гoрoде или в лесу, тo скoрoсть ветра занижена на 2-4 м/с пo сравнению с oткрытым местoм. Скoрoсть ветра над акватoриями крупных рек и oзёр, а также на вершинах хoлмoв на 2-5 м/с выше, чем в oбычных услoвиях.
Атмoсфернoе давление в разных тoчках местнoсти мoжет значительнo oтличаться oт давления на метеoстанции, в зависимoсти oт услoвий рельефа (при пoдъёме на 10 м давление пoнижается примернo на 1 мм рт.ст.).